Погода в Антиповке

Россия / Волгоградская область     49°49′39″N   45°18′44″E
темп.,
°C
ветер,
м/с
пор.,
м/с
влажн.,
%
обл.,
%
осадки,
мм/ч
давл.,
гПа
погр.,
м
17 апреля, сб
сб1700:00+13сз4668100 0.4 101897
03:00+12сз336721 0.5 101831
06:00+12зсз336392 0.0 101845
09:00+16зюз1149100 0.0 1018222
12:00+15з7759100 0.0 1019612
15:00+12зюз81081100 0.4 1020705
18:00+12зюз248382 0.9 1019255
21:00+9зсз48895 0.9 1020220
18 апреля, вс
вс1800:00+8зсз33855 0.0 102034
03:00+7сз22865 0.0 102112
06:00+8з128341 0.0 102014
09:00+13зюз226256 0.0 1020551
12:00+16з3343100 0.0 10191656
15:00+17зсз2240100 0.0 10191868
18:00+15зсз225051 0.0 101940
21:00+12зсз225765 0.0 101922
19 апреля, пн
пн1900:00+11ссз226275 0.0 101916
03:00+10ссв3369100 0.0 101927
06:00+10всв367996 0.0 1018177
09:00+14в3458100 0.0 1019547
12:00+15юв4549100 0.0 10171426
15:00+13ююв2567100 0.2 1017306
18:00+11всв4784100 2.2 1016295
21:00+11всв5991100 4.6 1016341
20 апреля, вт
вт2000:00+11в61290100 1.3 1015537
03:00+10вюв61292100 2.3 1015533
06:00+11вюв71394100 2.8 1014616
09:00+11вюв81494100 5.3 1014712
12:00+12вюв81590100 1.9 1015784
15:00+14вюв111774100 2.4 1012974
18:00+13вюв91775100 0.1 1013742
21:00+13вюв91779100 0.6 1013814
21 апреля, ср
ср2100:00+13ююв81578100 1.3 1014817
03:00+11ююв71288100 3.3 1014479
06:00+10ююв71389100 0.0 1016626
09:00+12ююз71072100 0.1 1018993
12:00+14ююз6857100 0.0 10181155
15:00+14ююз5557100 0.0 10191082
18:00+13юв4572100 0.0 1020262
21:00+10юв4888100 0.1 1022285